Retour au catalogue

FENGYUN 1C DEB

ActifPO
NORAD 35200·DEBRIS·🇨🇳 China

Lancé May 10, 1999 depuis Taiyuan Satellite Launch Center

Loading…

Prochains Passages (prochaines 24 heures)

TLE

VieillissantSource: Space-Track

Époque: Sep 9, 2026, 08:10 UTC

1 35200U 99025DPG 26252.34090330  .00000227  00000-0  32140-3 0  9998
2 35200  98.9004 202.9642 0353006  98.7417  50.7929 13.42114874695333

Suivez FENGYUN 1C DEB en temps réel avec AllMySat

Download on the App Store